Date String (YYYY-MM-DD hh:mm:ss) UTC,Instrument flags,absolute air pressure of the measurement (hPa),sample flow rate (lpm),inlet stack bypass flow (lpm),air temperature of the measurement (°C),ambient temperature measured by the external sensor (°C),aerosol sample conditioner tube jacket temperature (°C),OPC LED temperature (°C),internal box temperature (°C),relative humidity of the measurement (%),span deviation,mass concentration of particles derived from Lorenz-Mie calculation of OPC scattering (μg/m³),mass concentration of particles derived from Lorenz-Mie calculation of OPC scattering (μg/m³),mass concentration of particles derived from Lorenz-Mie calculation of OPC scattering (μg/m³)
DateTimeUTC,F1_M11,P_M11,Q1_M11,Q2_M11,T1_M11,T2_M11,T3_M11,T4_M11,T5_M11,U1_M11,ZSPAN_M11,X2_M11,X0_M11,X1_M11
2023-09-10 17:00:00,SystemResetWarning,0837.2,5.00,000.00,029.2,027.8,000.0,037.5,030.6,33.4,-000.7,0018.17,0031.92,0015.95
2023-09-10 17:01:00,SystemResetWarning,0837.2,5.00,000.00,029.3,027.9,000.0,037.5,030.7,33.3,-000.6,0018.09,0031.19,0015.93
2023-09-10 17:02:00,SystemResetWarning,0837.2,5.01,000.00,029.3,027.9,000.0,037.5,030.7,33.4,-000.5,0018.00,0030.72,0015.89
2023-09-10 17:03:00,SystemResetWarning,0837.2,5.01,000.00,029.3,028.0,000.0,037.6,030.7,33.3,-000.5,0017.91,0031.10,0015.88
2023-09-10 17:04:00,SystemResetWarning,0837.2,4.99,000.00,029.3,027.1,000.0,037.5,030.6,33.0,-000.5,0017.92,0030.38,0015.86
2023-09-10 17:05:00,SystemResetWarning,0837.2,5.01,000.00,029.2,025.3,000.0,037.4,030.2,32.9,-000.5,0017.88,0030.32,0015.81
2023-09-10 17:06:00,SystemResetWarning,0837.2,5.00,000.00,029.1,024.5,000.0,037.3,030.1,33.1,-000.6,0017.86,0030.71,0015.79
2023-09-10 17:07:00,SystemResetWarning,0837.2,5.01,000.00,029.0,024.5,000.0,037.3,029.9,33.3,-000.6,0017.81,0030.64,0015.78
2023-09-10 17:08:00,SystemResetWarning,0837.2,5.01,000.00,028.9,024.8,000.0,037.3,029.8,33.6,-000.6,0017.79,0030.70,0015.76
2023-09-10 17:09:00,SystemResetWarning,0837.2,5.00,000.00,028.8,025.3,000.0,037.3,029.8,33.7,-000.5,0017.77,0030.32,0015.73
2023-09-10 17:10:00,SystemResetWarning,0837.2,5.00,000.00,028.8,025.7,000.0,037.2,029.9,33.7,-000.5,0017.70,0030.18,0015.66
2023-09-10 17:11:00,SystemResetWarning,0837.2,5.00,000.00,028.7,026.1,000.0,037.2,029.9,33.8,-000.4,0017.70,0030.09,0015.62
2023-09-10 17:12:00,SystemResetWarning,0837.2,5.00,000.00,028.7,026.4,000.0,037.2,030.0,33.9,-000.4,0017.66,0030.06,0015.56
2023-09-10 17:13:00,SystemResetWarning,0837.2,5.00,000.00,028.7,026.6,000.0,037.2,030.1,33.9,-000.4,0017.64,0030.13,0015.50
2023-09-10 17:14:00,SystemResetWarning,0837.2,5.00,000.00,028.8,026.9,000.0,037.2,030.1,34.0,-000.3,0017.61,0029.49,0015.45
2023-09-10 17:15:00,SystemResetWarning,0837.2,5.00,000.00,028.8,027.0,000.0,037.2,030.1,33.8,-000.4,0017.59,0030.18,0015.42
2023-09-10 17:16:00,SystemResetWarning,0837.2,5.00,000.00,028.8,027.2,000.0,037.2,030.2,33.8,-000.4,0017.52,0030.35,0015.39
2023-09-10 17:17:00,SystemResetWarning,0837.3,5.00,000.00,028.8,027.3,000.0,037.2,030.3,33.8,-000.2,0017.44,0030.10,0015.32
2023-09-10 17:18:00,SystemResetWarning,0837.3,4.99,000.00,028.8,027.4,000.0,037.2,030.3,33.7,-000.3,0017.41,0030.17,0015.29
2023-09-10 17:19:00,SystemResetWarning,0837.2,5.00,000.00,028.9,027.5,000.0,037.2,030.4,33.6,-000.4,0017.35,0028.96,0015.26
2023-09-10 17:20:00,SystemResetWarning,0837.4,5.01,000.00,028.9,027.6,000.0,037.2,030.4,33.5,-000.4,0017.30,0028.81,0015.22
2023-09-10 17:21:00,SystemResetWarning,0837.3,5.01,000.00,028.9,027.7,000.0,037.2,030.4,33.5,-000.3,0017.30,0028.69,0015.24
2023-09-10 17:22:00,SystemResetWarning,0837.4,5.00,000.00,029.0,027.8,000.0,037.3,030.5,33.4,-000.4,0017.30,0028.81,0015.24
2023-09-10 17:23:00,SystemResetWarning,0837.5,5.00,000.00,029.0,027.8,000.0,037.3,030.5,33.4,-000.4,0017.25,0028.86,0015.24
2023-09-10 17:24:00,SystemResetWarning,0837.4,5.00,000.00,029.0,027.9,000.0,037.3,030.6,33.2,-000.4,0017.23,0029.96,0015.24
2023-09-10 17:25:00,SystemResetWarning,0837.4,5.00,000.00,029.0,027.9,000.0,037.3,030.6,33.1,-000.4,0017.24,0030.11,0015.26
2023-09-10 17:26:00,SystemResetWarning,0837.4,5.00,000.00,029.1,027.6,000.0,037.3,030.6,33.1,-000.5,0017.25,0030.57,0015.28
2023-09-10 17:27:00,SystemResetWarning,0837.4,4.98,000.00,029.0,025.9,000.0,037.2,030.2,33.0,-000.5,0017.32,0030.01,0015.30
2023-09-10 17:28:00,SystemResetWarning,0837.2,5.01,000.00,028.9,024.6,000.0,037.1,030.0,33.2,-000.4,0017.35,0030.13,0015.31
2023-09-10 17:29:00,SystemResetWarning,0837.2,5.00,000.00,028.8,024.3,000.0,037.1,029.9,33.4,-000.5,0017.36,0030.05,0015.31
2023-09-10 17:30:00,SystemResetWarning,0837.2,5.01,000.00,028.7,024.6,000.0,037.0,029.7,33.7,-000.5,0017.32,0030.60,0015.29
2023-09-10 17:31:00,SystemResetWarning,0837.2,5.00,000.00,028.6,025.0,000.0,037.0,029.7,33.9,-000.5,0017.32,0031.12,0015.30
2023-09-10 17:32:00,SystemResetWarning,0837.3,5.00,000.00,028.6,025.4,000.0,037.0,029.7,34.2,-000.7,0017.28,0031.41,0015.28
2023-09-10 17:33:00,SystemResetWarning,0837.3,5.00,000.00,028.5,025.8,000.0,037.0,029.8,34.1,-000.8,0017.20,0031.90,0015.28
2023-09-10 17:34:00,SystemResetWarning,0837.4,5.00,000.00,028.5,026.2,000.0,037.0,029.9,34.1,-000.8,0017.26,0032.77,0015.27
2023-09-10 17:35:00,SystemResetWarning,0837.4,4.99,000.00,028.5,026.5,000.0,037.0,029.9,34.1,-000.9,0017.30,0031.94,0015.30
2023-09-10 17:36:00,SystemResetWarning,0837.4,5.00,000.00,028.6,026.7,000.0,037.0,030.0,34.1,-000.9,0017.28,0032.56,0015.28
2023-09-10 17:37:00,SystemResetWarning,0837.5,5.00,000.00,028.6,026.9,000.0,037.0,030.0,34.1,-000.8,0017.26,0032.08,0015.27
2023-09-10 17:38:00,SystemResetWarning,0837.5,5.00,000.00,028.6,027.1,000.0,037.0,030.1,34.1,-000.7,0017.21,0031.86,0015.24
2023-09-10 17:39:00,SystemResetWarning,0837.5,5.00,000.00,028.6,027.2,000.0,037.0,030.2,34.0,-000.7,0017.21,0031.89,0015.24
2023-09-10 17:40:00,SystemResetWarning,0837.5,4.99,000.00,028.6,027.4,000.0,037.0,030.2,33.8,-000.8,0017.26,0031.96,0015.27
2023-09-10 17:41:00,SystemResetWarning,0837.5,5.00,000.00,028.7,027.5,000.0,037.0,030.2,33.8,-000.8,0017.37,0031.88,0015.30
2023-09-10 17:42:00,SystemResetWarning,0837.6,5.00,000.00,028.7,027.6,000.0,037.0,030.3,33.9,-000.7,0017.40,0031.80,0015.33
2023-09-10 17:43:00,SystemResetWarning,0837.6,5.00,000.00,028.7,027.6,000.0,037.1,030.3,34.0,-000.6,0017.50,0032.06,0015.38
2023-09-10 17:44:00,SystemResetWarning,0837.6,5.00,000.00,028.8,027.7,000.0,037.1,030.4,33.8,-000.6,0017.56,0032.33,0015.41
2023-09-10 17:45:00,SystemResetWarning,0837.6,5.00,000.00,028.8,027.8,000.0,037.1,030.4,33.7,-000.6,0017.56,0032.18,0015.47
2023-09-10 17:46:00,SystemResetWarning,0837.6,5.00,000.00,028.8,027.8,000.0,037.1,030.5,33.7,-000.6,0017.57,0032.23,0015.53
2023-09-10 17:47:00,SystemResetWarning,0837.5,4.99,000.00,028.9,027.9,000.0,037.1,030.5,33.6,-000.6,0017.63,0031.56,0015.62
2023-09-10 17:48:00,SystemResetWarning,0837.5,5.00,000.00,028.9,027.9,000.0,037.2,030.5,33.6,-000.7,0017.71,0031.43,0015.68
2023-09-10 17:49:00,SystemResetWarning,0837.5,4.99,000.00,028.9,028.0,000.0,037.2,030.6,33.6,-000.7,0017.76,0031.49,0015.72
2023-09-10 17:50:00,SystemResetWarning,0837.6,5.00,000.00,029.0,028.0,000.0,037.2,030.6,33.5,-000.6,0017.74,0031.35,0015.75
2023-09-10 17:51:00,SystemResetWarning,0837.6,5.00,000.00,029.0,028.0,000.0,037.3,030.7,33.4,-000.6,0017.71,0032.13,0015.77
2023-09-10 17:52:00,SystemResetWarning,0837.6,5.01,000.00,029.1,028.1,000.0,037.3,030.7,33.2,-000.5,0017.60,0031.74,0015.76
2023-09-10 17:53:00,SystemResetWarning,0837.7,4.99,000.00,029.1,027.1,000.0,037.2,030.6,33.2,-000.5,0017.63,0031.48,0015.76
2023-09-10 17:54:00,SystemResetWarning,0837.6,5.00,000.00,029.0,025.2,000.0,037.1,030.2,33.2,-000.8,0017.66,0032.09,0015.75
2023-09-10 17:55:00,SystemResetWarning,0837.7,5.01,000.00,028.9,024.3,000.0,037.1,030.0,33.4,-000.8,0017.68,0032.04,0015.73
2023-09-10 17:56:00,SystemResetWarning,0837.7,5.01,000.00,028.8,024.2,000.0,037.0,029.8,33.8,-000.7,0017.69,0031.72,0015.69
2023-09-10 17:57:00,SystemResetWarning,0837.6,5.00,000.00,028.6,024.6,000.0,037.0,029.7,34.2,-000.7,0017.70,0032.14,0015.65
2023-09-10 17:58:00,SystemResetWarning,0837.6,4.99,000.00,028.5,025.0,000.0,037.0,029.7,34.8,-000.6,0017.64,0032.61,0015.61
2023-09-10 17:59:00,SystemResetWarning,0837.6,5.00,000.00,028.6,025.5,000.0,037.0,029.8,35.2,-000.6,0017.55,0032.33,0015.59
